Location: Newark
(34.6283°N, 36.0776°E)
Time: 17:24:04
(UTC+00:00)

Tiros 1 - Pass Details

Date: 27 October 2019
Orbit: 630 x 664 km, 48.4° (Epoch: 12 November)

Event Time Altitude Azimuth Distance (km) Brightness Sun altitude
Exits shadow 01:31:33 27° 21° (NNE) 1,272 8.8 -29.3°
Maximum altitude 01:31:39 27° 23° (NNE) 1,272 8.8 -29.3°
Drops below altitude 10° 01:35:44 10° 81° (E) 2,078 10.7 -28.4°
Sets 01:38:23 0° 94° (E) 2,989 11.8 -27.9°
